STARLINK-11628, 63139

Orbit data source: Space-Track

STARLINK-11628, 63139 is a payload satellite owned by SpaceX/Seattle (US) in LEO that was launched on Mon, 03 Mar 2025 UTC via an FALCON 9 launch vehicle from the Air Force Eastern Test Range (AFETR). Payload-class satellites include a variety of spacecraft equipped with specific instruments for various scientific and technological missions. These include communications satellites like Starlink; space stations such as the ISS; scientific satellites like the Hubble; Earth observation satellites from companies like Planet Labs, Umbra, and HawkEye 360; GPS; miniature CubeSats for education and research; and military/defense satellites.

Loading next visibility...
Identifier
63139, 2025-043H
Orbit
LEO
Country
Flag of USUS
Related business
Manufacturer
SpaceX/Seattle
Mission
Operational Commercial Communications
Bus & Motor
STARLINK V2MD, Unknown motor
Mass
960 kg wet, ~910 kg dry
Launch date (UTC)
2025-03-03 (2 years ago)
Launch vehicle
FALCON 9
Launch site
Air Force Eastern Test Range (AFETR)
Object type
Payload
Rocket body
Debris
Shape & HBR
Box + 2 Pan, 18.1 m
Radar Cross Section
36.964 m², Large (>1 m²)

Expand to show TLE details & history
Last TLE update: 1 day ago

TLE from 1 day ago
0 STARLINK-11628
1 63139U 25043H   26255.24947357  .00235306  00000-0  17720-2 0  9995
2 63139  42.9921 206.1577 0002394  16.2122 343.8822 15.71024500 88811
Epoch: 2026-09-12T05:59Z
TLE epoch observation values (Epoch: 2026-09-12T05:59:14.516Z)
Latitude
-0°
Longitude
125.08603°
Altitude
354.189 km
Speed
7.699 km/s
True Right ascension
13h 44m 37s
True Declination
0° 00' 00"
Sunlit
Object was in daylight at epoch
Visualization orbit readout
Latitude
Unknown
Longitude
Unknown
Altitude
Unknown
Speed
Unknown
Apparent Right ascension
Unknown
Apparent Declination
Unknown
Sunlit
N/A
Visualization observer readout
Local Sidereal Time
23:51:52
Azimuth
Unknown
Elevation
Unknown
Doppler factor
Unknown
Orbital elements
Apogee altitude
359.563 km
Perigee altitude
356.338 km
Semi-major axis
6,736.088 km
Eccentricity
0.00024
Inclination
42.9921°
RAAN
206.1577°
Arg. of periapsis
16.2122°
True anomaly
343.87458°
Mean anomaly
343.8822°
Eccentric anomaly
343.87839°
Mean motion
3.92583 °/min
Orbital period
91.7 mins
BSTAR
0.001772
Loading maneuver chart data...
Computing Atmospheric mass density...
Loading historical data...
Loading historical data...
Loading historical data...
Loading historical data...
Loading historical data...
Loading historical data...
Loading historical data...

Documentation

Showing up to 5 results
|